FENGYUN 2G

Satellite information

Favourite Embed

Satellite Type and Status

PAYLOADIN ORBIT

Key statistics

Satellite FENGYUN 2G at a glance.

Uptime

3779

Days in orbit

Revolutions

≈ 1.0

Per day

Orbit

GEO

Geostationary Orbit

Inclination

4.6

Latest

Satellite identification and parameters

Extended collection of information and parameters for FENGYUN 2G.

Object identification

Identified? True

Debris? False

Object name: FENGYUN 2G

International designator: 2014-090A

Object number (NORAD): 40367

Object ID (CCSDS): 40367

Country: PEOPLES REPUBLIC OF CHINA (PRC)

Current information (Y/N): Y

RCS size: LARGE

Orbital parameters

Period: 1436.067 minutes

Inclination: 4.6089 deg

SMA: 42164.151 km

Apoapsis: 35798.433 km

Periapsis: 35773.598 km

RAAN: 77.7486 deg

Eccentricy: 0.0002945

Argument of periapsis: 132.5033 deg

Mean anomaly: 78.2041 deg

Mean motion: 1.00273859 rev/day

Mean motion (dot): -0.00000305 rev/day2

B* drag term: 0.0 1/REarth

Two-line elements (TLE)

Creation date: May 6, 2025, 3:54 a.m.

Reference frame: TEME

Reference center: EARTH

Epoch: May 5, 2025, 9:40 p.m. UTC

TLE line 0: 0 FENGYUN 2G

TLE line 1: 1 40367U 14090A 25125.90310336 -.00000305 00000-0 00000-0 0 9993

TLE line 2: 2 40367 4.6089 77.7486 0002945 132.5033 78.2041 1.00273859 37912

Live tracking on map

Real-time ground track for satellite FENGYUN 2G.

In-orbit conjunctions

There are no conjunctions computed for FENGYUN 2G, at the moment. Check back to stay up to date, as we update our databases every day.

Go to all conjunctions

Associated space launch

FENGYUN 2G was lifted into orbit during the mission ‘Long March 3A | Fengyun 2-08’, on board a Long March 3A space rocket.

The launch took place on Dec. 31, 2014, 1:02 a.m. from Launch Complex 2 (LC-2).

For more information about the launch, click the button.

Launch to space Long March 3A | Fengyun 2-08
Long March 3A | Fengyun 2-08

Agency: N/A

Status: Launch Successful

Launch date: Dec. 31, 2014, 1:02 a.m. UTC

Rocket: Long March 3A

Launch pad: Launch Complex 2 (LC-2)

Location: Xichang Satellite Launch Center, People's Republic of China

...

Latest news about this satellite

There are no fresh news available about this satellite. Check back as we update our databases every day.


Newsletter sign-up

Weekly statistics, charts and insights to help you stay on top of the space industry.